"FRM_AIS_EDR_2116.DAT           ",2005-09-07T05:28:33.93 ,"1/0074150908.53718",    0,    0,  274896,"AIS","B1","B1","B1","B1","PISd",0,0,0,0,"B1", 0,15,   0, 0,    0,"AIS","N/A    ","OK ","OK ",    001175.904,    -074.949,    -082.119,    0013.532,    0052.036
"FRM_AIS_EDR_2116.DAT           ",2005-09-07T05:28:41.48 ,"1/0074150916.23781",    0,    1,  274896,"AIS","B1","B1","B1","B1","PISd",0,0,0,0,"B1", 0,15,   0, 0,    0,"AIS","N/A    ","OK ","OK ",    001165.518,    -074.628,    -081.867,    0013.551,    0051.787
"FRM_AIS_EDR_2116.DAT           ",2005-09-07T05:28:49.02 ,"1/0074150923.59381",    0,    2,  274896,"AIS","B1","B1","B1","B1","PISd",0,0,0,0,"B1", 0,15,   0, 0,    0,"AIS","N/A    ","OK ","OK ",    001155.162,    -074.307,    -081.625,    0013.569,    0051.538
"FRM_AIS_EDR_2116.DAT           ",2005-09-07T05:28:56.56 ,"1/0074150931.29444",    0,    3,  274896,"AIS","B1","B1","B1","B1","PISd",0,0,0,0,"B1", 0,15,   0, 0,    0,"AIS","N/A    ","NOK","OK ",    001144.838,    -073.983,    -081.392,    0013.586,    0051.287
"FRM_AIS_EDR_2116.DAT           ",2005-09-07T05:29:04.10 ,"1/0074150938.65043",    0,    4,  274896,"AIS","B1","B1","B1","B1","PISd",0,0,0,0,"B1", 0,15,   0, 0,    0,"AIS","N/A    ","OK ","OK ",    001134.545,    -073.657,    -081.169,    0013.603,    0051.037
"FRM_AIS_EDR_2116.DAT           ",2005-09-07T05:29:11.65 ,"1/0074150946.35107",    0,    5,  274896,"AIS","B1","B1","B1","B1","PISd",0,0,0,0,"B1", 0,15,   0, 0,    0,"AIS","N/A    ","OK ","OK ",    001124.285,    -073.330,    -080.954,    0013.619,    0050.786
"FRM_AIS_EDR_2116.DAT           ",2005-09-07T05:29:19.19 ,"1/0074150954.05170",    0,    6,  274896,"AIS","B1","B1","B1","B1","PISd",0,0,0,0,"B1", 0,15,   0, 0,    0,"AIS","N/A    ","OK ","OK ",    001114.058,    -073.001,    -080.748,    0013.635,    0050.534
"FRM_AIS_EDR_2116.DAT           ",2005-09-07T05:29:26.73 ,"1/0074150961.40769",    0,    7,  274896,"AIS","B1","B1","B1","B1","PISd",0,0,0,0,"B1", 0,15,   0, 0,    0,"AIS","N/A    ","OK ","OK ",    001103.864,    -072.670,    -080.549,    0013.651,    0050.282
"FRM_AIS_EDR_2116.DAT           ",2005-09-07T05:29:34.28 ,"1/0074150969.10833",    0,    8,  274896,"AIS","B1","B1","B1","B1","PISd",0,0,0,0,"B1", 0,15,   0, 0,    0,"AIS","N/A    ","OK ","OK ",    001093.705,    -072.338,    -080.357,    0013.666,    0050.030
"FRM_AIS_EDR_2116.DAT           ",2005-09-07T05:29:41.82 ,"1/0074150976.46432",    0,    9,  274896,"AIS","B1","B1","B1","B1","PISd",0,0,0,0,"B1", 0,15,   0, 0,    0,"AIS","N/A    ","OK ","OK ",    001083.579,    -072.004,    -080.173,    0013.680,    0049.777
"FRM_AIS_EDR_2116.DAT           ",2005-09-07T05:29:49.36 ,"1/0074150984.16495",    0,   10,  274896,"AIS","B1","B1","B1","B1","PISd",0,0,0,0,"B1", 0,15,   0, 0,    0,"AIS","N/A    ","OK ","OK ",    001073.489,    -071.668,    -079.995,    0013.694,    0049.524
"FRM_AIS_EDR_2116.DAT           ",2005-09-07T05:29:56.91 ,"1/0074150991.52095",    0,   11,  274896,"AIS","B1","B1","B1","B1","PISd",0,0,0,0,"B1", 0,15,   0, 0,    0,"AIS","N/A    ","OK ","OK ",    001063.434,    -071.330,    -079.824,    0013.707,    0049.270
"FRM_AIS_EDR_2116.DAT           ",2005-09-07T05:30:04.45 ,"1/0074150999.22158",    0,   12,  274896,"AIS","B1","B1","B1","B1","PISd",0,0,0,0,"B1", 0,15,   0, 0,    0,"AIS","N/A    ","OK ","OK ",    001053.415,    -070.990,    -079.658,    0013.720,    0049.016
"FRM_AIS_EDR_2116.DAT           ",2005-09-07T05:30:11.99 ,"1/0074151006.57757",    0,   13,  274896,"AIS","B1","B1","B1","B1","PISd",0,0,0,0,"B1", 0,15,   0, 0,    0,"AIS","N/A    ","OK ","OK ",    001043.433,    -070.649,    -079.499,    0013.733,    0048.761
"FRM_AIS_EDR_2116.DAT           ",2005-09-07T05:30:19.54 ,"1/0074151014.27821",    0,   14,  274896,"AIS","B1","B1","B1","B1","PISd",0,0,0,0,"B1", 0,15,   0, 0,    0,"AIS","N/A    ","OK ","OK ",    001033.487,    -070.306,    -079.345,    0013.745,    0048.506
"FRM_AIS_EDR_2116.DAT           ",2005-09-07T05:30:27.08 ,"1/0074151021.63420",    0,   15,  274896,"AIS","B1","B1","B1","B1","PISd",0,0,0,0,"B1", 0,15,   0, 0,    0,"AIS","N/A    ","OK ","OK ",    001023.579,    -069.962,    -079.196,    0013.757,    0048.251
"FRM_AIS_EDR_2116.DAT           ",2005-09-07T05:30:34.62 ,"1/0074151029.33483",    0,   16,  274896,"AIS","B1","B1","B1","B1","PISd",0,0,0,0,"B1", 0,15,   0, 0,    0,"AIS","N/A    ","OK ","OK ",    001013.710,    -069.615,    -079.052,    0013.769,    0047.996
"FRM_AIS_EDR_2116.DAT           ",2005-09-07T05:30:42.17 ,"1/0074151037.03546",    0,   17,  274896,"AIS","B1","B1","B1","B1","PISd",0,0,0,0,"B1", 0,15,   0, 0,    0,"AIS","N/A    ","OK ","OK ",    001003.879,    -069.267,    -078.913,    0013.780,    0047.740
"FRM_AIS_EDR_2116.DAT           ",2005-09-07T05:30:49.71 ,"1/0074151044.39146",    0,   18,  274896,"AIS","B1","B1","B1","B1","PISd",0,0,0,0,"B1", 0,15,   0, 0,    0,"AIS","N/A    ","OK ","OK ",    000994.087,    -068.918,    -078.779,    0013.791,    0047.484
"FRM_AIS_EDR_2116.DAT           ",2005-09-07T05:30:57.25 ,"1/0074151052.09209",    0,   19,  274896,"AIS","B1","B1","B1","B1","PISd",0,0,0,0,"B1", 0,15,   0, 0,    0,"AIS","N/A    ","OK ","OK ",    000984.335,    -068.566,    -078.649,    0013.802,    0047.228
"FRM_AIS_EDR_2116.DAT           ",2005-09-07T05:30:57.25 ,"1/0074151052.09209",    0,  120,  274896,"AIS","B1","B1","B1","B1","PISd",0,0,0,0,"B1", 0,15,   0, 0,    0,"AIS","N/A    ","OK ","OK ",    000984.335,    -068.566,    -078.649,    0013.802,    0047.228
"FRM_AIS_EDR_2116.DAT           ",2005-09-07T05:43:46.66 ,"1/0074151821.35860",    0,  121,  274896,"AIS","B1","B1","B1","B1","PISd",0,0,0,0,"B1", 0,15,   0, 0,    0,"AIS","N/A    ","OK ","OK ",    000312.106,    -024.464,    -074.637,    0014.277,    0030.984
"FRM_AIS_EDR_2116.DAT           ",2005-09-07T05:43:54.20 ,"1/0074151829.05923",    0,  122,  274896,"AIS","B1","B1","B1","B1","PISd",0,0,0,0,"B1", 0,15,   0, 0,    0,"AIS","N/A    ","OK ","OK ",    000309.801,    -023.969,    -074.632,    0014.279,    0031.078
"FRM_AIS_EDR_2116.DAT           ",2005-09-07T05:44:01.75 ,"1/0074151836.41523",    0,  123,  274896,"AIS","B1","B1","B1","B1","PISd",0,0,0,0,"B1", 0,15,   0, 0,    0,"AIS","N/A    ","OK ","OK ",    000307.597,    -023.473,    -074.628,    0014.282,    0031.179
"FRM_AIS_EDR_2116.DAT           ",2005-09-07T05:44:09.29 ,"1/0074151844.11586",    0,  124,  274896,"AIS","B1","B1","B1","B1","PISd",0,0,0,0,"B1", 0,15,   0, 0,    0,"AIS","N/A    ","OK ","OK ",    000305.495,    -022.977,    -074.624,    0014.284,    0031.288
"FRM_AIS_EDR_2116.DAT           ",2005-09-07T05:44:16.83 ,"1/0074151851.47185",    0,  125,  274896,"AIS","B1","B1","B1","B1","PISd",0,0,0,0,"B1", 0,15,   0, 0,    0,"AIS","N/A    ","OK ","OK ",    000303.496,    -022.480,    -074.620,    0014.286,    0031.403
"FRM_AIS_EDR_2116.DAT           ",2005-09-07T05:44:24.38 ,"1/0074151859.17249",    0,  126,  274896,"AIS","B1","B1","B1","B1","PISd",0,0,0,0,"B1", 0,15,   0, 0,    0,"AIS","N/A    ","OK ","OK ",    000301.599,    -021.983,    -074.616,    0014.289,    0031.526
"FRM_AIS_EDR_2116.DAT           ",2005-09-07T05:44:31.92 ,"1/0074151866.52848",    0,  127,  274896,"AIS","B1","B1","B1","B1","PISd",0,0,0,0,"B1", 0,15,   0, 0,    0,"AIS","N/A    ","OK ","OK ",    000299.805,    -021.486,    -074.613,    0014.291,    0031.655
"FRM_AIS_EDR_2116.DAT           ",2005-09-07T05:44:39.46 ,"1/0074151874.22911",    0,  128,  274896,"AIS","B1","B1","B1","B1","PISd",0,0,0,0,"B1", 0,15,   0, 0,    0,"AIS","N/A    ","OK ","OK ",    000298.114,    -020.987,    -074.609,    0014.293,    0031.791
"FRM_AIS_EDR_2116.DAT           ",2005-09-07T05:44:47.01 ,"1/0074151881.58511",    0,  129,  274896,"AIS","B1","B1","B1","B1","PISd",0,0,0,0,"B1", 0,15,   0, 0,    0,"AIS","N/A    ","OK ","OK ",    000296.527,    -020.489,    -074.606,    0014.296,    0031.934
"FRM_AIS_EDR_2116.DAT           ",2005-09-07T05:44:54.55 ,"1/0074151889.28574",    0,  130,  274896,"AIS","B1","B1","B1","B1","PISd",0,0,0,0,"B1", 0,15,   0, 0,    0,"AIS","N/A    ","OK ","OK ",    000295.043,    -019.990,    -074.603,    0014.298,    0032.083
"FRM_AIS_EDR_2116.DAT           ",2005-09-07T05:45:02.09 ,"1/0074151896.64173",    0,  131,  274896,"AIS","B1","B1","B1","B1","PISd",0,0,0,0,"B1", 0,15,   0, 0,    0,"AIS","N/A    ","OK ","OK ",    000293.664,    -019.491,    -074.601,    0014.300,    0032.239
"FRM_AIS_EDR_2116.DAT           ",2005-09-07T05:45:09.63 ,"1/0074151904.34237",    0,  132,  274896,"AIS","B1","B1","B1","B1","PISd",0,0,0,0,"B1", 0,15,   0, 0,    0,"AIS","N/A    ","OK ","OK ",    000292.388,    -018.991,    -074.598,    0014.302,    0032.402
"FRM_AIS_EDR_2116.DAT           ",2005-09-07T05:45:17.18 ,"1/0074151912.04300",    0,  133,  274896,"AIS","B1","B1","B1","B1","PISd",0,0,0,0,"B1", 0,15,   0, 0,    0,"AIS","N/A    ","OK ","OK ",    000291.217,    -018.491,    -074.596,    0014.304,    0032.571
"FRM_AIS_EDR_2116.DAT           ",2005-09-07T05:45:24.72 ,"1/0074151919.39899",    0,  134,  274896,"AIS","B1","B1","B1","B1","PISd",0,0,0,0,"B1", 0,15,   0, 0,    0,"AIS","N/A    ","OK ","OK ",    000290.150,    -017.991,    -074.594,    0014.307,    0032.746
"FRM_AIS_EDR_2116.DAT           ",2005-09-07T05:45:32.26 ,"1/0074151927.09963",    0,  135,  274896,"AIS","B1","B1","B1","B1","PISd",0,0,0,0,"B1", 0,15,   0, 0,    0,"AIS","N/A    ","OK ","OK ",    000289.187,    -017.490,    -074.592,    0014.309,    0032.927
"FRM_AIS_EDR_2116.DAT           ",2005-09-07T05:45:39.81 ,"1/0074151934.45562",    0,  136,  274896,"AIS","B1","B1","B1","B1","PISd",0,0,0,0,"B1", 0,15,   0, 0,    0,"AIS","N/A    ","OK ","OK ",    000288.330,    -016.990,    -074.590,    0014.311,    0033.115
"FRM_AIS_EDR_2116.DAT           ",2005-09-07T05:45:47.35 ,"1/0074151942.15625",    0,  137,  274896,"AIS","B1","B1","B1","B1","PISd",0,0,0,0,"B1", 0,15,   0, 0,    0,"AIS","N/A    ","OK ","OK ",    000287.577,    -016.489,    -074.588,    0014.313,    0033.308
"FRM_AIS_EDR_2116.DAT           ",2005-09-07T05:45:54.89 ,"1/0074151949.51224",    0,  138,  274896,"AIS","B1","B1","B1","B1","PISd",0,0,0,0,"B1", 0,15,   0, 0,    0,"AIS","N/A    ","OK ","OK ",    000286.930,    -015.988,    -074.587,    0014.315,    0033.507
"FRM_AIS_EDR_2116.DAT           ",2005-09-07T05:46:02.44 ,"1/0074151957.21288",    0,  139,  274896,"AIS","B1","B1","B1","B1","PISd",0,0,0,0,"B1", 0,15,   0, 0,    0,"AIS","N/A    ","OK ","OK ",    000286.387,    -015.486,    -074.585,    0014.317,    0033.713
"FRM_AIS_EDR_2116.DAT           ",2005-09-07T05:46:09.98 ,"1/0074151964.56887",    0,  140,  274896,"AIS","B1","B1","B1","B1","PISd",0,0,0,0,"B1", 0,15,   0, 0,    0,"AIS","N/A    ","OK ","OK ",    000285.950,    -014.985,    -074.584,    0014.319,    0033.923
"FRM_AIS_EDR_2116.DAT           ",2005-09-07T05:46:17.52 ,"1/0074151972.26950",    0,  141,  274896,"AIS","B1","B1","B1","B1","PISd",0,0,0,0,"B1", 0,15,   0, 0,    0,"AIS","N/A    ","OK ","OK ",    000285.618,    -014.484,    -074.583,    0014.322,    0034.140
"FRM_AIS_EDR_2116.DAT           ",2005-09-07T05:46:25.07 ,"1/0074151979.62550",    0,  142,  274896,"AIS","B1","B1","B1","B1","PISd",0,0,0,0,"B1", 0,15,   0, 0,    0,"AIS","N/A    ","OK ","OK ",    000285.392,    -013.982,    -074.582,    0014.324,    0034.362
"FRM_AIS_EDR_2116.DAT           ",2005-09-07T05:46:32.61 ,"1/0074151987.32613",    0,  143,  274896,"AIS","B1","B1","B1","B1","PISd",0,0,0,0,"B1", 0,15,   0, 0,    0,"AIS","N/A    ","OK ","OK ",    000285.271,    -013.481,    -074.581,    0014.326,    0034.589
"FRM_AIS_EDR_2116.DAT           ",2005-09-07T05:46:40.15 ,"1/0074151995.02676",    0,  144,  274896,"AIS","B1","B1","B1","B1","PISd",0,0,0,0,"B1", 0,15,   0, 0,    0,"AIS","N/A    ","OK ","OK ",    000285.256,    -012.979,    -074.581,    0014.328,    0034.821
"FRM_AIS_EDR_2116.DAT           ",2005-09-07T05:46:47.70 ,"1/0074152002.38276",    0,  145,  274896,"AIS","B1","B1","B1","B1","PISd",0,0,0,0,"B1", 0,15,   0, 0,    0,"AIS","N/A    ","OK ","OK ",    000285.346,    -012.478,    -074.580,    0014.330,    0035.058
"FRM_AIS_EDR_2116.DAT           ",2005-09-07T05:46:55.24 ,"1/0074152010.08339",    0,  146,  274896,"AIS","B1","B1","B1","B1","PISd",0,0,0,0,"B1", 0,15,   0, 0,    0,"AIS","N/A    ","OK ","OK ",    000285.541,    -011.976,    -074.580,    0014.332,    0035.301
"FRM_AIS_EDR_2116.DAT           ",2005-09-07T05:47:02.78 ,"1/0074152017.43938",    0,  147,  274896,"AIS","B1","B1","B1","B1","PISd",0,0,0,0,"B1", 0,15,   0, 0,    0,"AIS","N/A    ","OK ","OK ",    000285.842,    -011.475,    -074.579,    0014.334,    0035.548
"FRM_AIS_EDR_2116.DAT           ",2005-09-07T05:47:10.33 ,"1/0074152025.14002",    0,  148,  274896,"AIS","B1","B1","B1","B1","PISd",0,0,0,0,"B1", 0,15,   0, 0,    0,"AIS","N/A    ","OK ","OK ",    000286.249,    -010.973,    -074.579,    0014.336,    0035.800
"FRM_AIS_EDR_2116.DAT           ",2005-09-07T05:47:17.87 ,"1/0074152032.49601",    0,  149,  274896,"AIS","B1","B1","B1","B1","PISd",0,0,0,0,"B1", 0,15,   0, 0,    0,"AIS","N/A    ","OK ","OK ",    000286.761,    -010.472,    -074.579,    0014.338,    0036.057
"FRM_AIS_EDR_2116.DAT           ",2005-09-07T05:47:25.41 ,"1/0074152040.19664",    0,  150,  274896,"AIS","B1","B1","B1","B1","PISd",0,0,0,0,"B1", 0,15,   0, 0,    0,"AIS","N/A    ","OK ","OK ",    000287.378,    -009.971,    -074.579,    0014.340,    0036.318
"FRM_AIS_EDR_2116.DAT           ",2005-09-07T05:47:32.96 ,"1/0074152047.55264",    0,  151,  274896,"AIS","B1","B1","B1","B1","PISd",0,0,0,0,"B1", 0,15,   0, 0,    0,"AIS","N/A    ","OK ","OK ",    000288.101,    -009.471,    -074.580,    0014.342,    0036.583
"FRM_AIS_EDR_2116.DAT           ",2005-09-07T05:47:40.50 ,"1/0074152055.25327",    0,  152,  274896,"AIS","B1","B1","B1","B1","PISd",0,0,0,0,"B1", 0,15,   0, 0,    0,"AIS","N/A    ","OK ","OK ",    000288.929,    -008.970,    -074.580,    0014.344,    0036.853
"FRM_AIS_EDR_2116.DAT           ",2005-09-07T05:47:48.04 ,"1/0074152062.60926",    0,  153,  274896,"AIS","B1","B1","B1","B1","PISd",0,0,0,0,"B1", 0,15,   0, 0,    0,"AIS","N/A    ","OK ","OK ",    000289.862,    -008.470,    -074.580,    0014.346,    0037.127
"FRM_AIS_EDR_2116.DAT           ",2005-09-07T05:47:55.59 ,"1/0074152070.30990",    0,  154,  274896,"AIS","B1","B1","B1","B1","PISd",0,0,0,0,"B1", 0,15,   0, 0,    0,"AIS","N/A    ","OK ","OK ",    000290.901,    -007.970,    -074.581,    0014.348,    0037.405
"FRM_AIS_EDR_2116.DAT           ",2005-09-07T05:48:03.13 ,"1/0074152078.01053",    0,  155,  274896,"AIS","B1","B1","B1","B1","PISd",0,0,0,0,"B1", 0,15,   0, 0,    0,"AIS","N/A    ","OK ","OK ",    000292.044,    -007.470,    -074.581,    0014.350,    0037.687
"FRM_AIS_EDR_2116.DAT           ",2005-09-07T05:48:10.67 ,"1/0074152085.36652",    0,  156,  274896,"AIS","B1","B1","B1","B1","PISd",0,0,0,0,"B1", 0,15,   0, 0,    0,"AIS","N/A    ","OK ","OK ",    000293.292,    -006.971,    -074.582,    0014.352,    0037.972
"FRM_AIS_EDR_2116.DAT           ",2005-09-07T05:48:18.21 ,"1/0074152093.06716",    0,  157,  274896,"AIS","B1","B1","B1","B1","PISd",0,0,0,0,"B1", 0,15,   0, 0,    0,"AIS","N/A    ","OK ","OK ",    000294.644,    -006.472,    -074.583,    0014.354,    0038.261
"FRM_AIS_EDR_2116.DAT           ",2005-09-07T05:48:25.76 ,"1/0074152100.42315",    0,  158,  274896,"AIS","B1","B1","B1","B1","PISd",0,0,0,0,"B1", 0,15,   0, 0,    0,"AIS","N/A    ","OK ","OK ",    000296.101,    -005.973,    -074.584,    0014.356,    0038.554
"FRM_AIS_EDR_2116.DAT           ",2005-09-07T05:48:33.30 ,"1/0074152108.12378",    0,  159,  274896,"AIS","B1","B1","B1","B1","PISd",0,0,0,0,"B1", 0,15,   0, 0,    0,"AIS","N/A    ","OK ","OK ",    000297.662,    -005.475,    -074.584,    0014.358,    0038.851
"FRM_AIS_EDR_2116.DAT           ",2005-09-07T05:48:40.84 ,"1/0074152115.47978",    0,  160,  274896,"AIS","B1","B1","B1","B1","PISd",0,0,0,0,"B1", 0,15,   0, 0,    0,"AIS","N/A    ","OK ","OK ",    000299.327,    -004.977,    -074.585,    0014.360,    0039.150
"FRM_AIS_EDR_2116.DAT           ",2005-09-07T05:48:48.39 ,"1/0074152123.18041",    0,  161,  274896,"AIS","B1","B1","B1","B1","PISd",0,0,0,0,"B1", 0,15,   0, 0,    0,"AIS","N/A    ","OK ","OK ",    000301.096,    -004.480,    -074.587,    0014.362,    0039.453
"FRM_AIS_EDR_2116.DAT           ",2005-09-07T05:48:55.93 ,"1/0074152130.53640",    0,  162,  274896,"AIS","B1","B1","B1","B1","PISd",0,0,0,0,"B1", 0,15,   0, 0,    0,"AIS","N/A    ","OK ","OK ",    000302.968,    -003.983,    -074.588,    0014.364,    0039.759
"FRM_AIS_EDR_2116.DAT           ",2005-09-07T05:49:03.47 ,"1/0074152138.23704",    0,  163,  274896,"AIS","B1","B1","B1","B1","PISd",0,0,0,0,"B1", 0,15,   0, 0,    0,"AIS","N/A    ","OK ","OK ",    000304.944,    -003.487,    -074.589,    0014.366,    0040.068
"FRM_AIS_EDR_2116.DAT           ",2005-09-07T05:49:11.02 ,"1/0074152145.59303",    0,  164,  274896,"AIS","B1","B1","B1","B1","PISd",0,0,0,0,"B1", 0,15,   0, 0,    0,"AIS","N/A    ","OK ","OK ",    000307.023,    -002.991,    -074.590,    0014.368,    0040.380
"FRM_AIS_EDR_2116.DAT           ",2005-09-07T05:49:18.56 ,"1/0074152153.29366",    0,  165,  274896,"AIS","B1","B1","B1","B1","PISd",0,0,0,0,"B1", 0,15,   0, 0,    0,"AIS","N/A    ","OK ","OK ",    000309.204,    -002.496,    -074.591,    0014.370,    0040.695
"FRM_AIS_EDR_2116.DAT           ",2005-09-07T05:49:26.10 ,"1/0074152160.64966",    0,  166,  274896,"AIS","B1","B1","B1","B1","PISd",0,0,0,0,"B1", 0,15,   0, 0,    0,"AIS","N/A    ","OK ","OK ",    000311.488,    -002.001,    -074.593,    0014.372,    0041.012
"FRM_AIS_EDR_2116.DAT           ",2005-09-07T05:49:33.65 ,"1/0074152168.35029",    0,  167,  274896,"AIS","B1","B1","B1","B1","PISd",0,0,0,0,"B1", 0,15,   0, 0,    0,"AIS","N/A    ","OK ","OK ",    000313.875,    -001.507,    -074.594,    0014.374,    0041.332
"FRM_AIS_EDR_2116.DAT           ",2005-09-07T05:49:41.19 ,"1/0074152176.05092",    0,  168,  274896,"AIS","B1","B1","B1","B1","PISd",0,0,0,0,"B1", 0,15,   0, 0,    0,"AIS","N/A    ","OK ","OK ",    000316.363,    -001.014,    -074.596,    0014.376,    0041.655
"FRM_AIS_EDR_2116.DAT           ",2005-09-07T05:49:48.73 ,"1/0074152183.40691",    0,  169,  274896,"AIS","B1","B1","B1","B1","PISd",0,0,0,0,"B1", 0,15,   0, 0,    0,"AIS","N/A    ","OK ","OK ",    000318.952,    -000.521,    -074.597,    0014.378,    0041.980
"FRM_AIS_EDR_2116.DAT           ",2005-09-07T05:49:56.28 ,"1/0074152191.10755",    0,  170,  274896,"AIS","B1","B1","B1","B1","PISd",0,0,0,0,"B1", 0,15,   0, 0,    0,"AIS","N/A    ","OK ","OK ",    000321.643,    -000.029,    -074.599,    0014.380,    0042.307
"FRM_AIS_EDR_2116.DAT           ",2005-09-07T05:50:03.82 ,"1/0074152198.46354",    0,  171,  274896,"AIS","B1","B1","B1","B1","PISd",0,0,0,0,"B1", 0,15,   0, 0,    0,"AIS","N/A    ","OK ","OK ",    000324.435,    0000.462,    -074.601,    0014.382,    0042.636
"FRM_AIS_EDR_2116.DAT           ",2005-09-07T05:50:11.36 ,"1/0074152206.16417",    0,  172,  274896,"AIS","B1","B1","B1","B1","PISd",0,0,0,0,"B1", 0,15,   0, 0,    0,"AIS","N/A    ","OK ","OK ",    000327.327,    0000.952,    -074.602,    0014.383,    0042.968
"FRM_AIS_EDR_2116.DAT           ",2005-09-07T05:50:18.91 ,"1/0074152213.52017",    0,  173,  274896,"AIS","B1","B1","B1","B1","PISd",0,0,0,0,"B1", 0,15,   0, 0,    0,"AIS","N/A    ","OK ","OK ",    000330.319,    0001.442,    -074.604,    0014.385,    0043.302
"FRM_AIS_EDR_2116.DAT           ",2005-09-07T05:50:26.45 ,"1/0074152221.22080",    0,  174,  274896,"AIS","B1","B1","B1","B1","PISd",0,0,0,0,"B1", 0,15,   0, 0,    0,"AIS","N/A    ","OK ","OK ",    000333.411,    0001.931,    -074.606,    0014.387,    0043.637
"FRM_AIS_EDR_2116.DAT           ",2005-09-07T05:50:33.99 ,"1/0074152228.57679",    0,  175,  274896,"AIS","B1","B1","B1","B1","PISd",0,0,0,0,"B1", 0,15,   0, 0,    0,"AIS","N/A    ","OK ","OK ",    000336.602,    0002.419,    -074.608,    0014.389,    0043.974
"FRM_AIS_EDR_2116.DAT           ",2005-09-07T05:50:41.54 ,"1/0074152236.27743",    0,  176,  274896,"AIS","B1","B1","B1","B1","PISd",0,0,0,0,"B1", 0,15,   0, 0,    0,"AIS","N/A    ","OK ","OK ",    000339.892,    0002.906,    -074.609,    0014.391,    0044.313
"FRM_AIS_EDR_2116.DAT           ",2005-09-07T05:50:49.08 ,"1/0074152243.63342",    0,  177,  274896,"AIS","B1","B1","B1","B1","PISd",0,0,0,0,"B1", 0,15,   0, 0,    0,"AIS","N/A    ","OK ","OK ",    000343.281,    0003.393,    -074.611,    0014.393,    0044.654
"FRM_AIS_EDR_2116.DAT           ",2005-09-07T05:50:56.62 ,"1/0074152251.33405",    0,  178,  274896,"AIS","B1","B1","B1","B1","PISd",0,0,0,0,"B1", 0,15,   0, 0,    0,"AIS","N/A    ","OK ","OK ",    000346.767,    0003.878,    -074.613,    0014.395,    0044.997
"FRM_AIS_EDR_2116.DAT           ",2005-09-07T05:51:04.17 ,"1/0074152259.03469",    0,  179,  274896,"AIS","B1","B1","B1","B1","PISd",0,0,0,0,"B1", 0,15,   0, 0,    0,"AIS","N/A    ","OK ","OK ",    000350.351,    0004.363,    -074.615,    0014.397,    0045.340
"FRM_AIS_EDR_2116.DAT           ",2005-09-07T05:51:11.71 ,"1/0074152266.39068",    0,  180,  274896,"AIS","B1","B1","B1","B1","PISd",0,0,0,0,"B1", 0,15,   0, 0,    0,"AIS","N/A    ","OK ","OK ",    000354.033,    0004.846,    -074.617,    0014.399,    0045.686
"FRM_AIS_EDR_2116.DAT           ",2005-09-07T05:51:19.25 ,"1/0074152274.09131",    0,  181,  274896,"AIS","B1","B1","B1","B1","PISd",0,0,0,0,"B1", 0,15,   0, 0,    0,"AIS","N/A    ","OK ","OK ",    000357.810,    0005.329,    -074.619,    0014.401,    0046.032
"FRM_AIS_EDR_2116.DAT           ",2005-09-07T05:51:26.79 ,"1/0074152281.44731",    0,  182,  274896,"AIS","B1","B1","B1","B1","PISd",0,0,0,0,"B1", 0,15,   0, 0,    0,"AIS","N/A    ","OK ","OK ",    000361.684,    0005.811,    -074.621,    0014.402,    0046.380
"FRM_AIS_EDR_2116.DAT           ",2005-09-07T05:51:34.34 ,"1/0074152289.14794",    0,  183,  274896,"AIS","B1","B1","B1","B1","PISd",0,0,0,0,"B1", 0,15,   0, 0,    0,"AIS","N/A    ","OK ","OK ",    000365.654,    0006.291,    -074.623,    0014.404,    0046.730
"FRM_AIS_EDR_2116.DAT           ",2005-09-07T05:51:41.88 ,"1/0074152296.50393",    0,  184,  274896,"AIS","B1","B1","B1","B1","PISd",0,0,0,0,"B1", 0,15,   0, 0,    0,"AIS","N/A    ","OK ","OK ",    000369.719,    0006.771,    -074.625,    0014.406,    0047.080
"FRM_AIS_EDR_2116.DAT           ",2005-09-07T05:51:49.42 ,"1/0074152304.20457",    0,  185,  274896,"AIS","B1","B1","B1","B1","PISd",0,0,0,0,"B1", 0,15,   0, 0,    0,"AIS","N/A    ","OK ","OK ",    000373.879,    0007.250,    -074.627,    0014.408,    0047.431
"FRM_AIS_EDR_2116.DAT           ",2005-09-07T05:51:56.97 ,"1/0074152311.56056",    0,  186,  274896,"AIS","B1","B1","B1","B1","PISd",0,0,0,0,"B1", 0,15,   0, 0,    0,"AIS","N/A    ","OK ","OK ",    000378.132,    0007.727,    -074.629,    0014.410,    0047.783
"FRM_AIS_EDR_2116.DAT           ",2005-09-07T05:52:04.51 ,"1/0074152319.26119",    0,  187,  274896,"AIS","B1","B1","B1","B1","PISd",0,0,0,0,"B1", 0,15,   0, 0,    0,"AIS","N/A    ","OK ","OK ",    000382.480,    0008.204,    -074.631,    0014.412,    0048.137
"FRM_AIS_EDR_2116.DAT           ",2005-09-07T05:52:12.05 ,"1/0074152326.61719",    0,  188,  274896,"AIS","B1","B1","B1","B1","PISd",0,0,0,0,"B1", 0,15,   0, 0,    0,"AIS","N/A    ","OK ","OK ",    000386.920,    0008.679,    -074.633,    0014.414,    0048.491
"FRM_AIS_EDR_2116.DAT           ",2005-09-07T05:52:19.60 ,"1/0074152334.31782",    0,  189,  274896,"AIS","B1","B1","B1","B1","PISd",0,0,0,0,"B1", 0,15,   0, 0,    0,"AIS","N/A    ","OK ","OK ",    000391.453,    0009.153,    -074.635,    0014.416,    0048.845
"FRM_AIS_EDR_2116.DAT           ",2005-09-07T05:52:27.14 ,"1/0074152342.01845",    0,  190,  274896,"AIS","B1","B1","B1","B1","PISd",0,0,0,0,"B1", 0,15,   0, 0,    0,"AIS","N/A    ","OK ","OK ",    000396.078,    0009.627,    -074.637,    0014.418,    0049.201